Flag for U.S.A. Weather past 2 weeks in Jersey City, New Jersey, U.S.A.

Now
76 °F

Scattered clouds.


Feels Like: 77 °F
Forecast: 55 / 75 °F
Wind: 6 mph from Northwest

Location: Newark International Airport

Current Time: Sep 18, 2014 at 6:06:30 PM

Latest Report: Sep 18, 2014 at 4:51 PM


Visibility: 10 mi

Pressure: 29.98 "Hg

Humidity: 33%

Dew point: 45 °F

Location of Jersey CityLocation

Historic Weather in Jersey City — Graph

°F

Jersey City temperature yesterday

Maximum temperature yesterday: 74 °F (at 2:51 PM)
Minimum temperature yesterday: 54 °F (at 5:51 AM)
Average temperature yesterday: 65 °F

Past Weeks' High & Low Weather Summary

 TemperatureHumidityPressure
High93 °F (Sep 6, 2:51 PM)97% (Sep 13, 7:51 PM)30.31 "Hg (Sep 13, 7:51 PM)
Low53 °F (Sep 14, 6:51 AM)32% (Sep 17, 2:51 PM)29.82 "Hg (Sep 11, 3:51 PM)
Average70 °F66%30.09 "Hg
* Reported Sep 3 4:51 PM — Sep 18 4:51 PM, Jersey City, Weather by CustomWeather, © 2014

Note: Actual official high and low records may vary slightly from our data, if they occured in-between our weather recording intervals... More about our weather records

Advertising

Jersey City weather history for previous 24 hours

 ConditionsComfort  
Time TempWeatherWind HumidityBarometerVisibility
4:51 PM
Sep 18
76 °FScattered clouds.6 mph33%29.98 "Hg10 mi
3:51 PM75 °FScattered clouds.13 mph33%29.98 "Hg10 mi
2:51 PM77 °FScattered clouds.8 mph32%29.97 "Hg10 mi
1:51 PM77 °FScattered clouds.8 mph35%29.98 "Hg10 mi
12:51 PM76 °FScattered clouds.6 mph36%29.99 "Hg10 mi
11:51 AM74 °FScattered clouds.5 mph37%30.00 "Hg10 mi
10:51 AM72 °FPassing clouds.5 mph38%30.01 "Hg10 mi
9:51 AM69 °FScattered clouds.7 mph47%30.01 "Hg10 mi
8:51 AM65 °FScattered clouds.3 mph66%30.01 "Hg10 mi
7:51 AM60 °FScattered clouds.No wind80%30.00 "Hg10 mi
6:51 AM57 °FPassing clouds.5 mph83%29.99 "Hg10 mi
5:51 AM54 °FClear.No wind86%29.97 "Hg10 mi
4:51 AM56 °FClear.No wind84%29.97 "Hg10 mi
3:51 AM57 °FClear.No wind81%29.96 "Hg10 mi
2:51 AM57 °FClear.No wind81%29.96 "Hg10 mi
1:51 AM58 °FClear.3 mph78%29.97 "Hg10 mi
12:51 AM60 °FClear.5 mph72%29.97 "Hg10 mi
11:51 PM
Sep 17
60 °FClear.3 mph75%29.98 "Hg10 mi
10:51 PM61 °FPassing clouds.5 mph72%29.98 "Hg10 mi
9:51 PM64 °FPassing clouds.7 mph68%29.98 "Hg10 mi
8:51 PM65 °FPassing clouds.6 mph59%29.98 "Hg10 mi
7:51 PM68 °FScattered clouds.6 mph40%29.97 "Hg10 mi
6:51 PM70 °FScattered clouds.7 mph38%29.97 "Hg10 mi
Weather by CustomWeather, © 2014

See weather overviewHow to use our weather pages